STARLINK-37613, 69211

Orbit data source: Space-Track

STARLINK-37613, 69211 is a payload satellite owned by SpaceX/Seattle (US) in SSO that was launched on Tue, 26 May 2026 UTC via an FALCON 9 launch vehicle from the Air Force Western Test Range (AFWTR). Payload-class satellites include a variety of spacecraft equipped with specific instruments for various scientific and technological missions. These include communications satellites like Starlink; space stations such as the ISS; scientific satellites like the Hubble; Earth observation satellites from companies like Planet Labs, Umbra, and HawkEye 360; GPS; miniature CubeSats for education and research; and military/defense satellites.

Not visible in the next 10 days
Identifier
69211, 2026-115A
Orbit
SSO
Country
Flag of USUS
Related business
Manufacturer
SpaceX/Seattle
Mission
Operational spacecraft
Bus & Motor
STARLINK V2MO, Unknown motor
Mass
575 kg wet, ~530 kg dry
Launch date (UTC)
2026-05-26 (4 weeks ago)
Launch vehicle
FALCON 9
Launch site
Air Force Western Test Range (AFWTR)
Object type
Payload
Rocket body
Debris
Shape & HBR
Unknown
Radar Cross Section
Large (>1 m²)

Expand to show TLE details & history
Last TLE update: 12 hours ago

TLE from 12 hours ago
0 STARLINK-37613
1 69211U 26115A   26171.36290772  .00032609  00000-0  59873-3 0  9992
2 69211  97.2842 188.5073 0000189  82.6281 277.4991 15.49191126  5159
Epoch: 2026-06-20T08:42Z
TLE epoch observation values (Epoch: 2026-06-20T08:42:35.227Z)
Latitude
-0.00013°
Longitude
149.28193°
Altitude
422.208 km
Speed
7.658 km/s
True Right ascension
12h 34m 01s
True Declination
0° 00' 00"
Sunlit
Object was in daylight at epoch
Visualization orbit readout
Latitude
Unknown
Longitude
Unknown
Altitude
Unknown
Speed
Unknown
Apparent Right ascension
Unknown
Apparent Declination
Unknown
Sunlit
N/A
Visualization observer readout
Local Sidereal Time
07:12:26
Azimuth
Unknown
Elevation
Unknown
Doppler factor
Unknown
Orbital elements
Apogee altitude
416.141 km
Perigee altitude
415.884 km
Semi-major axis
6,794.15 km
Eccentricity
0.00002
Inclination
97.2842°
RAAN
188.5073°
Arg. of periapsis
82.6281°
True anomaly
277.49695°
Mean anomaly
277.4991°
Eccentric anomaly
277.49803°
Mean motion
3.87561 °/min
Orbital period
92.89 mins
BSTAR
0.00059873
Loading maneuver chart data...
Computing Atmospheric mass density...
Loading historical data...
Loading historical data...
Loading historical data...
Loading historical data...
Loading historical data...
Loading historical data...
Loading historical data...

Documentation

Showing up to 5 results
|